Location: Bishopstone
(51.0167°N, 1.9000°W)
Time: 02:25:06
(UTC+00:00)

Cosmos 1378 - Pass Details

Date: 16 September 2019
Orbit: 493 x 502 km, 82.5° (Epoch: 15 October)

Event Time Altitude Azimuth Distance (km) Brightness Sun altitude
Rises 18:58:54 0° 348° (NNW) 2,616 7.1 -6.8°
Reaches altitude 10° 19:01:01 10° 348° (NNW) 1,726 6.2 -7.2°
Maximum altitude 19:04:48 82° 262° (W) 515 3.3 -7.7°
Drops below altitude 10° 19:08:33 10° 174° (S) 1,709 5.6 -8.3°
Sets 19:10:39 0° 173° (S) 2,586 6.5 -8.6°
